K4AVM-13 Weather Reports


time (UTC)temp
C
wind
direction
speed
KPH
gust
KPH
rain 1hr
cm
rain 24hr
cm
rain mn
cm
humidity
%
barometer
mb
20260505003327 21 151 0.0 1.6 0.00 0.00 0.00 44 1013.6
20260505002822 20 235 0.0 1.6 0.00 0.00 0.00 44 1013.2
20260505002320 20 155 0.0 1.6 0.00 0.00 0.00 44 1013.3
20260505001818 20 147 0.0 0.0 0.00 0.00 0.00 44 1013.4
20260505001315 20 155 0.0 0.0 0.00 0.00 0.00 44 1013.5
20260505000812 21 153 0.0 1.6 0.00 0.00 0.00 43 1013.3
20260505000310 20 179 1.6 1.6 0.00 0.00 0.00 42 1013.4
20260504235806 21 154 0.0 0.0 0.00 0.00 0.00 42 1013.4
20260504235304 21 154 0.0 0.0 0.00 0.00 0.00 41 1013.3
20260504234800 21 133 1.6 1.6 0.00 0.00 0.00 40 1013.4
20260504234258 22 158 0.0 1.6 0.00 0.00 0.00 40 1013.1
20260504233753 22 146 0.0 1.6 0.00 0.00 0.00 39 1013.2
20260504233249 22 157 0.0 1.6 0.00 0.00 0.00 39 1013.3
20260504232746 22 189 1.6 3.2 0.00 0.00 0.00 37 1013.1
20260504232243 22 180 1.6 3.2 0.00 0.00 0.00 36 1013.0
20260504231740 23 149 3.2 4.8 0.00 0.00 0.00 36 1013.0
20260504231237 23 119 1.6 3.2 0.00 0.00 0.00 36 1013.0
20260504230732 23 154 1.6 9.7 0.00 0.00 0.00 35 1013.0
20260504230231 23 214 1.6 4.8 0.00 0.00 0.00 36 1013.1
20260504225730 23 187 3.2 11.3 0.00 0.00 0.00 34 1013.0
20260504225226 23 161 1.6 3.2 0.00 0.00 0.00 34 1013.1
20260504224723 23 134 3.2 6.4 0.00 0.00 0.00 34 1013.2
20260504224220 23 170 3.2 6.4 0.00 0.00 0.00 34 1013.2
20260504223716 23 186 3.2 6.4 0.00 0.00 0.00 34 1013.2
20260504223212 24 198 0.0 4.8 0.00 0.00 0.00 33 1013.1
20260504222709 24 156 3.2 4.8 0.00 0.00 0.00 34 1013.1
20260504222206 24 183 1.6 1.6 0.00 0.00 0.00 33 1013.0
20260504221703 24 142 0.0 3.2 0.00 0.00 0.00 33 1013.1
20260504221200 25 214 3.2 6.4 0.00 0.00 0.00 32 1012.9
20260504220656 24 219 1.6 6.4 0.00 0.00 0.00 32 1012.9
20260504220155 24 161 6.4 11.3 0.00 0.00 0.00 33 1013.1
20260504215650 25 167 0.0 4.8 0.00 0.00 0.00 32 1012.9
20260504215148 25 132 0.0 1.6 0.00 0.00 0.00 33 1012.9
20260504214643 25 146 4.8 6.4 0.00 0.00 0.00 31 1012.8
20260504214140 25 154 3.2 6.4 0.00 0.00 0.00 32 1012.9
20260504213637 26 226 4.8 6.4 0.00 0.00 0.00 31 1013.1
20260504213134 26 171 0.0 16.1 0.00 0.00 0.00 31 1012.9
20260504212630 26 172 1.6 9.7 0.00 0.00 0.00 31 1013.1
20260504212127 26 219 3.2 9.7 0.00 0.00 0.00 30 1012.9
20260504211625 26 184 0.0 3.2 0.00 0.00 0.00 33 1013.1
20260504211121 26 216 3.2 9.7 0.00 0.00 0.00 31 1013.0
20260504210619 27 183 1.6 9.7 0.00 0.00 0.00 30 1012.9
20260504210114 26 195 0.0 4.8 0.00 0.00 0.00 31 1013.0
20260504205612 26 165 1.6 6.4 0.00 0.00 0.00 34 1012.8
20260504205110 25 196 4.8 6.4 0.00 0.00 0.00 32 1013.0
20260504204608 26 193 3.2 6.4 0.00 0.00 0.00 31 1012.9
20260504204107 26 217 1.6 6.4 0.00 0.00 0.00 31 1013.1
20260504203605 26 188 0.0 4.8 0.00 0.00 0.00 31 1013.1
20260504203102 26 186 1.6 4.8 0.00 0.00 0.00 31 1013.3
20260504202557 26 202 4.8 9.7 0.00 0.00 0.00 31 1013.3
20260504202054 26 178 3.2 3.2 0.00 0.00 0.00 33 1013.5
20260504201551 26 180 0.0 3.2 0.00 0.00 0.00 31 1013.3
20260504201049 25 183 0.0 3.2 0.00 0.00 0.00 34 1013.3
20260504200545 25 214 4.8 9.7 0.00 0.00 0.00 32 1013.3
20260504200042 26 143 8.0 12.9 0.00 0.00 0.00 31 1013.4
20260504195538 26 169 1.6 3.2 0.00 0.00 0.00 32 1013.5
20260504195035 26 118 1.6 9.7 0.00 0.00 0.00 32 1013.6
20260504194531 25 183 3.2 3.2 0.00 0.00 0.00 32 1013.8
20260504194027 25 290 4.8 4.8 0.00 0.00 0.00 32 1013.8
20260504193524 25 169 0.0 0.0 0.00 0.00 0.00 32 1013.9
20260504193022 24 186 3.2 11.3 0.00 0.00 0.00 33 1014.0
20260504192520 24 130 3.2 4.8 0.00 0.00 0.00 33 1014.1
20260504192018 25 169 0.0 0.0 0.00 0.00 0.00 34 1014.1
20260504191516 25 211 3.2 4.8 0.00 0.00 0.00 32 1014.1
20260504191012 25 182 1.6 1.6 0.00 0.00 0.00 34 1014.5
20260504190508 25 203 1.6 3.2 0.00 0.00 0.00 32 1014.4
20260504190004 25 190 0.0 3.2 0.00 0.00 0.00 31 1014.5
20260504185501 24 135 3.2 4.8 0.00 0.00 0.00 30 1014.3
20260504184958 24 160 3.2 3.2 0.00 0.00 0.00 31 1014.4
20260504184453 24 207 3.2 6.4 0.00 0.00 0.00 31 1014.7
20260504183949 24 144 3.2 9.7 0.00 0.00 0.00 31 1014.5
20260504183446 23 175 0.0 3.2 0.00 0.00 0.00 34 1014.5
20260504182944 24 215 3.2 9.7 0.00 0.00 0.00 31 1014.6
20260504182440 24 181 0.0 1.6 0.00 0.00 0.00 35 1014.8
20260504181938 24 151 3.2 4.8 0.00 0.00 0.00 34 1014.9
20260504181435 23 214 1.6 3.2 0.00 0.00 0.00 32 1015.1
20260504180934 23 207 4.8 4.8 0.00 0.00 0.00 34 1015.1
20260504180432 23 142 1.6 3.2 0.00 0.00 0.00 32 1014.9
20260504175930 23 148 1.6 3.2 0.00 0.00 0.00 36 1015.1
20260504175427 23 133 1.6 6.4 0.00 0.00 0.00 33 1015.2
20260504174925 23 209 3.2 3.2 0.00 0.00 0.00 34 1015.1
20260504174422 22 192 1.6 3.2 0.00 0.00 0.00 35 1015.2
20260504173919 22 195 3.2 4.8 0.00 0.00 0.00 34 1015.4
20260504173416 22 172 3.2 4.8 0.00 0.00 0.00 34 1015.3
20260504172913 23 207 4.8 6.4 0.00 0.00 0.00 33 1015.3
20260504172409 23 157 8.0 9.7 0.00 0.00 0.00 32 1015.5
20260504171905 24 175 1.6 4.8 0.00 0.00 0.00 36 1015.5
20260504171403 23 160 0.0 1.6 0.00 0.00 0.00 33 1015.6
20260504170900 23 118 1.6 3.2 0.00 0.00 0.00 32 1015.7
20260504170356 23 174 1.6 3.2 0.00 0.00 0.00 34 1015.9
20260504160315 22 18 1.6 6.4 0.00 0.00 0.00 32 1016.3
20260504150739 22 201 1.6 1.6 0.00 0.00 0.00 37 1016.9
20260504150236 21 160 0.0 0.0 0.00 0.00 0.00 36 1016.9
20260504141206 18 164 0.0 0.0 0.00 0.00 0.00 46 1016.9
20260504140703 18 164 0.0 0.0 0.00 0.00 0.00 46 1017.0
20260504140158 18 164 0.0 0.0 0.00 0.00 0.00 46 1017.0
20260504130626 16 198 1.6 3.2 0.00 0.00 0.00 48 1017.4
20260504130123 16 141 0.0 0.0 0.00 0.00 0.00 50 1017.3
20260504110503 8 160 0.0 0.0 0.00 0.00 0.00 72 1017.7
20260504100419 9 129 0.0 0.0 0.00 0.00 0.00 70 1017.7
20260504081812 8 133 0.0 0.0 0.00 0.00 0.00 70 1018.1
20260504081309 8 143 0.0 0.0 0.00 0.00 0.00 73 1018.1
20260504080805 8 145 0.0 0.0 0.00 0.00 0.00 73 1018.2
20260504080302 8 145 0.0 0.0 0.00 0.00 0.00 73 1018.0
20260504070229 8 135 0.0 0.0 0.00 0.00 0.00 74 1018.1
20260504060150 6 120 0.0 0.0 0.00 0.00 0.00 80 1018.2
20260504050618 6 133 0.0 0.0 0.00 0.00 0.00 77 1018.0
20260504050115 6 131 0.0 0.0 0.00 0.00 0.00 76 1018.0
20260504045612 6 134 0.0 0.0 0.00 0.00 0.00 76 1018.0
20260504045107 6 131 0.0 0.0 0.00 0.00 0.00 76 1018.0
20260504044605 6 141 0.0 0.0 0.00 0.00 0.00 76 1018.1
20260504044102 6 128 0.0 0.0 0.00 0.00 0.00 75 1018.0
20260504043559 7 138 0.0 0.0 0.00 0.00 0.00 74 1018.0
20260504043056 7 134 0.0 0.0 0.00 0.00 0.00 73 1018.0
20260504042553 7 132 0.0 0.0 0.00 0.00 0.00 73 1018.1
20260504042050 7 127 0.0 0.0 0.00 0.00 0.00 73 1018.1
20260504041545 6 133 0.0 0.0 0.00 0.00 0.00 75 1017.9
20260504041042 6 135 0.0 0.0 0.00 0.00 0.00 76 1017.9
20260504040539 6 133 0.0 0.0 0.00 0.00 0.00 76 1018.0
20260504040036 6 133 0.0 0.0 0.00 0.00 0.00 77 1017.9
20260504035533 6 132 0.0 0.0 0.00 0.00 0.00 76 1017.9
20260504035029 6 124 0.0 0.0 0.00 0.00 0.00 76 1017.9
20260504034527 6 129 0.0 0.0 0.00 0.00 0.00 76 1017.9
20260504034024 6 130 0.0 0.0 0.00 0.00 0.00 75 1018.0
20260504033522 6 128 0.0 0.0 0.00 0.00 0.00 75 1018.0
20260504033019 6 132 0.0 0.0 0.00 0.00 0.00 75 1018.0
20260504032516 6 131 0.0 0.0 0.00 0.00 0.00 74 1017.7
20260504032012 6 131 0.0 0.0 0.00 0.00 0.00 74 1017.8
20260504031509 6 129 0.0 0.0 0.00 0.00 0.00 72 1017.7
20260504031005 7 135 0.0 0.0 0.00 0.00 0.00 73 1017.8
20260504030503 7 143 0.0 0.0 0.00 0.00 0.00 72 1017.9
20260504025959 7 145 0.0 0.0 0.00 0.00 0.00 72 1017.8
20260504025456 7 143 0.0 0.0 0.00 0.00 0.00 71 1017.8
20260504024953 7 144 0.0 0.0 0.00 0.00 0.00 71 1017.6
20260504024450 7 145 0.0 0.0 0.00 0.00 0.00 69 1017.8
20260504023947 7 148 0.0 0.0 0.00 0.00 0.00 70 1017.7
20260504023444 7 148 0.0 0.0 0.00 0.00 0.00 71 1017.7
20260504022939 7 150 0.0 0.0 0.00 0.00 0.00 70 1017.7
20260504022435 7 147 0.0 0.0 0.00 0.00 0.00 69 1017.6
20260504021932 7 142 0.0 0.0 0.00 0.00 0.00 70 1017.8
20260504021429 7 141 0.0 0.0 0.00 0.00 0.00 70 1017.7
20260504020926 7 141 0.0 0.0 0.00 0.00 0.00 69 1017.6
20260504020423 7 137 0.0 0.0 0.00 0.00 0.00 69 1017.7
20260504015920 7 141 0.0 0.0 0.00 0.00 0.00 68 1017.6
20260504015415 7 145 0.0 0.0 0.00 0.00 0.00 66 1017.5
20260504014912 8 145 0.0 0.0 0.00 0.00 0.00 65 1017.6
20260504014408 8 149 0.0 0.0 0.00 0.00 0.00 65 1017.6
20260504013904 8 152 0.0 0.0 0.00 0.00 0.00 66 1017.7
20260504013403 8 152 0.0 0.0 0.00 0.00 0.00 66 1017.6
20260504012859 8 152 0.0 0.0 0.00 0.00 0.00 64 1017.5
20260504012356 8 150 0.0 0.0 0.00 0.00 0.00 63 1017.7
20260504011849 8 150 0.0 0.0 0.00 0.00 0.00 61 1017.7
20260504011345 8 151 0.0 0.0 0.00 0.00 0.00 62 1017.5
20260504010841 9 152 0.0 0.0 0.00 0.00 0.00 60 1017.5
20260504010337 9 152 0.0 0.0 0.00 0.00 0.00 60 1017.6
20260504005834 10 153 0.0 0.0 0.00 0.00 0.00 57 1017.6
20260504005330 10 153 0.0 0.0 0.00 0.00 0.00 58 1017.5
20260504004828 10 152 0.0 0.0 0.00 0.00 0.00 56 1017.6
20260504004326 10 152 0.0 0.0 0.00 0.00 0.00 54 1017.4
20260504003822 10 154 0.0 0.0 0.00 0.00 0.00 52 1017.2